EUTE 115 WEST A(SATMEX 5

导读

**EUTE 115 WEST A(又称SATMEX 5)**由欧洲EUTE发射,1998年12月6日升空,定点西经115度地球静止轨道。作为通信卫星,它主要服务美洲地区通信传输,曾为墨西哥及周边提供语音、数据和广播电视传输服务,服役多年后逐步退出运营,是九十年代国际商用通信卫星发展的典型代表。

基本信息
目录编号:
25558
目录名称:
EUTE 115 WEST A(SATMEX 5
国际标识:
1998-070A
轨道中心:
EARTH
卫星名称:
EUTE 115 WEST A(SATMEX 5
卫星全名:
--
卫星状态:
在轨 (已飞行10055 天)
发射日期:
1998-12-06 UTC
国别 :
(EUTE)
星等 :
--
轨道信息
数据来源 国际轨道数据 AOE轨道数据
星历时间 2026-06-17T02:24:30+0800
18小时前
查看轨道信息
2026-06-17T03:00:00+0800
17小时前
查看轨道信息
半长轴 42605.644km 42605.759km
偏心率 0.000485 0.0004766
轨道倾角 10.335° 10.335°
近地点辐角 56.920° 54.599°
升交点赤经 51.959° 51.961°
平近点角 127.457° 138.535°
近地点 36206.843km 36207.316km
远地点 36248.171km 36247.928km
周期 1458.681分钟 1458.687分钟
每日圈数 0.987193 0.987189
详细信息
使用方式:
暂无
2D轨道图
3D轨道图
轨道高度分析图
轨道倾角分析图
轨道综合分析图
查看轨道综合分析图